Они

Грузия     42°35′18″N   43°26′26″E
темп.,
°C
ветер,
м/с
пор.,
м/с
влажн.,
%
обл.,
%
осадки,
мм/ч
давл.,
гПа
погр.,
м
11 апреля, вс
вс1101:00+6в3692100 3.6 1015226
04:00+6всв2492100 8.6 101570
07:00+6всв3487100 1.0 101566
10:00+9всв3575100 1.4 1015362
13:00+9ююв2478100 1.4 10151081
16:00+9в2382100 5.8 1015482
19:00+8юв2287100 0.1 101447
22:00+5ююв1297100 0.5 101689
12 апреля, пн
пн1201:00+4ююз1199100 2.2 1018114
04:00+3зсз119999 2.5 1019109
07:00+3зюз109787 0.1 1019141
10:00+6юз119276 0.4 1018233
13:00+7юз218788 0.5 1017547
16:00+5юз229494 1.6 1018291
19:00+3зюз2299100 1.2 1019227
22:00+2з2299100 5.8 1022145
13 апреля, вт
вт1301:00+1сз1299100 1.4 102393
04:00+2ююз11100100 2.4 1022170
07:00+2з01100100 1.2 1021100
10:00+3ююз1199100 3.8 1021143
13:00+4юз1198100 2.8 1021195
16:00+3юз2198100 3.6 1020237
19:00+3сз1299100 1.6 1020152
22:00+2зсз1199100 4.1 1020133
14 апреля, ср
ср1401:000ююз11100100 8.5 102190
04:00−1ссв0199100 18.9 102172
07:00−1з0199100 1.3 102164
10:00+1зюз11100100 1.8 102181
13:00+3зюз11100100 0.1 1020232
16:00+4з1297100 0.3 1019489
19:00+3сз1210090 0.1 101958
22:00−1ссв219871 0.1 102127
15 апреля, чт
чт1501:00−2св229623 0.0 102227
04:00−2св229217 0.0 102226
07:00−2св32905 0.0 102231
10:00+6ссз01802 0.0 1018339
13:00+9зюз12663 0.0 10171009
16:00+10з125832 0.0 10171116
19:00+7ссв119082 0.0 101812
22:00+2св3286100 0.0 102131